[[{"header":{"parameterUnit":"m.s-1","parameterCategory":1,"la1":30.2991,"la2":30.254,"lo1":-89.0895,"lo2":-89.0444,"dy":0.0017,"dx":0.0017,"nx":28,"ny":28,"refTime":"2025-11-12T09:00:00:Z","depth":0,"parameterNumber":2,"parameterNumberName":"U-component_of_WINDS"},"data":[0,0,0,0,0,0,0,0,0,0,0,0,0,0,0,0,0,0,0,0,0,0,0,0,0,0,0,0,0,0,0,0,0,0,0,0,0,0,0,0,0,0,0,0,0,0,0,0,0,0,0,0,0,0,0,0,0,0,1.8061,1.8062,0,1.8203,1.8204,1.8206,1.8196,1.8194,1.8192,1.819,1.8333,1.8339,1.8345,0,0,0,0,0,0,0,0,0,0,0,0,0,1.7778,1.7783,1.8061,1.8062,1.8064,1.8203,1.8205,1.8206,1.8197,1.8194,1.8191,1.8189,1.8332,1.8338,1.8345,0,0,0,0,0,0,0,0,0,0,0,0,0,1.7908,1.7785,1.806,1.8076,1.8079,1.8202,1.8205,1.8207,1.8197,1.8194,1.8191,1.8188,1.8329,1.8338,1.8346,1.8463,0,0,1.8373,1.8376,0,0,0,0,0,0,0,0,1.7901,1.7919,1.8072,1.8075,1.8078,1.8179,1.8157,1.8293,1.8198,1.8152,1.819,1.8186,1.8284,1.8296,1.833,1.8469,1.8476,1.8373,1.8379,1.8382,1.8385,0,0,0,0,0,0,0,1.7892,1.7913,1.8117,1.8074,1.8078,1.8075,1.809,1.8183,1.8234,1.8156,1.8155,1.8173,1.8285,1.8322,1.8333,1.8478,1.8373,1.8381,1.8386,1.839,1.8717,1.8721,0,0,0,0,0,0,1.788,1.7905,1.8112,1.8121,1.798,1.8083,1.8099,1.815,1.8233,1.8243,1.8175,1.8172,1.8308,1.8323,1.8338,1.8478,1.8382,1.8391,1.8395,1.8714,1.8718,1.8722,0,0,0,0,0,0,1.7874,1.7898,1.8107,1.8013,1.8039,1.8091,1.8147,1.8154,1.819,1.8248,1.8256,1.8203,1.8307,1.8326,1.8431,1.8483,1.8394,1.8402,1.871,1.8715,1.872,1.8759,0,0,0,0,0,0,1.7866,1.7896,1.7942,1.8014,1.8044,1.8198,1.8151,1.8159,1.8205,1.8202,1.8276,1.8285,1.8306,1.8419,1.844,1.8493,1.8409,1.8705,1.8712,1.8718,1.8753,1.8765,1.8775,0,0,0,0,0,1.7856,1.7947,1.7944,1.7969,1.8102,1.8201,1.8218,1.8241,1.821,1.8255,1.8292,1.8283,1.8474,1.8429,1.8454,1.851,1.8702,1.871,1.8718,1.8748,1.8763,1.8775,0,0,0,0,0,0,1.7878,1.7957,1.7954,1.8072,1.813,1.8199,1.8257,1.8255,1.8323,1.8317,1.8341,1.8358,1.8463,1.8498,1.8446,1.8626,1.8584,1.8597,1.8599,1.8613,1.8624,1.8612,1.8416,0,0,0,0,0,1.7897,1.7972,1.8036,1.8134,1.8163,1.8205,1.8249,1.8261,1.8322,1.8346,1.8391,1.8449,1.8523,1.857,1.8641,1.8759,1.8774,1.881,1.8821,1.8829,1.8839,1.8902,1.8918,1.8748,1.8748,1.8748,0,0,1.7937,1.7989,1.8034,1.814,1.8186,1.8261,1.8226,1.8307,1.8363,1.8359,1.846,1.8495,1.8562,1.8674,1.8725,1.8705,1.889,1.8839,1.8846,1.8851,1.8912,1.8928,1.8942,1.8753,1.8752,1.8751,0,0,1.8046,1.8094,1.818,1.8227,1.8298,1.8325,1.8346,1.8416,1.8438,1.8541,1.8539,1.8605,1.8732,1.8779,1.8819,1.8947,1.894,1.8969,1.9024,1.9085,1.9098,1.911,1.9153,1.9168,1.898,1.898,1.898,0,1.8085,1.8199,1.8224,1.8305,1.8351,1.8352,1.8437,1.8482,1.8572,1.8603,1.858,1.8737,1.8783,1.8904,1.8935,1.8969,1.8992,1.8959,1.9095,1.9107,1.9118,1.9159,1.9176,1.8983,1.8982,1.8982,1.8982,0,1.8243,1.8322,1.8383,1.847,1.8523,1.8606,1.8641,1.8692,1.87,1.8729,1.8833,1.8888,1.8968,1.8999,1.9008,1.9121,1.9107,1.909,1.9047,1.9137,1.9176,1.9192,1.8987,1.8986,1.8985,1.8984,0,0,1.8369,1.8468,1.849,1.8528,1.8607,1.8668,1.8751,1.8831,1.8872,1.8935,1.9003,1.911,1.9095,1.9141,1.9155,1.9209,1.9303,1.9185,1.9186,1.9202,1.9428,1.9438,1.9456,1.93,1.9303,1.9306,1.9421,0,1.8484,1.8631,1.8655,1.8784,1.8856,1.8858,1.893,1.8985,1.9015,1.908,1.9113,1.9187,1.9163,1.919,1.9244,1.928,1.9348,1.9272,1.9362,1.9365,1.9341,1.9477,1.9488,1.9595,1.9437,1.944,1.9442,0,1.8637,1.8703,1.8839,1.8907,1.8938,1.9002,1.9076,1.9139,1.9201,1.9219,1.9271,1.9278,1.9363,1.932,1.9436,1.9384,1.9422,1.9445,1.945,1.9457,1.9406,1.9484,1.963,1.9644,1.9466,1.9464,1.9463,0,1.8711,1.8835,1.8931,1.8965,1.9047,1.9092,1.9128,1.9187,1.9233,1.9298,1.9327,1.9402,1.9441,1.9498,1.9525,1.9491,1.9638,1.9597,1.9653,1.9652,1.9681,1.9679,1.9832,1.9712,1.9712,1.9711,1.9711,0,1.8835,1.8917,1.8965,1.9025,1.9116,1.9144,1.9233,1.9268,1.9321,1.9386,1.9393,1.9454,1.9487,1.9553,1.9575,1.9666,1.9685,1.97,1.9704,1.9698,1.9695,1.9721,1.9713,1.9716,1.9715,1.9714,1.9713,0,1.8931,1.8968,1.9073,1.9142,1.9161,1.9225,1.9284,1.9341,1.9371,1.9453,1.9474,1.9521,1.9598,1.9632,1.9727,1.9742,1.9845,1.9845,1.9824,1.9824,1.9877,1.987,2.0049,2.0073,1.994,1.9942,1.9943,0,1.9006,1.907,1.9146,1.919,1.9227,1.9299,1.9346,1.9375,1.9423,1.9499,1.9546,1.9624,1.9687,1.981,1.9852,1.9924,1.9924,1.9982,1.9935,1.9926,1.9921,1.9916,1.9921,1.999,1.9991,1.9992,1.9993,0,1.9134,1.9149,1.9217,1.9291,1.9346,1.9406,1.9464,1.95,1.9538,1.9591,1.9671,1.972,1.9817,1.9893,1.9968,2.0004,2.0004,2.0008,2.0024,2.0016,2.0,2.0006,1.9843,2.0003,2.0002,2.0001,2.0001,2.0,1.922,1.9276,1.9338,1.9412,1.9459,1.9513,1.9569,1.9607,1.9674,1.9755,1.9769,1.9852,1.9912,2.0013,2.0052,2.0117,2.0103,2.0127,2.0133,2.0137,2.0139,1.9992,2.0132,2.0131,2.0131,2.0131,2.0131,0,1.9346,1.9386,1.9455,1.9535,1.9594,1.9591,1.9655,1.9703,1.9777,1.9834,1.9896,1.9986,2.006,2.0108,2.0182,2.0225,2.0227,2.0243,2.0239,2.0246,2.0149,2.0126,2.024,2.024,2.024,2.024,2.024,2.024,1.9418,1.9511,1.9533,1.9649,1.9688,1.977,1.9807,1.9856,1.9901,2.0001,2.0063,2.0094,2.0147,2.0225,2.0292,2.0305,2.033,2.0347,2.0358,2.0265,2.0254,2.0243,2.0221,2.0353,2.0353,2.0449,2.045,2.0451]},{"header":{"parameterUnit":"m.s-1","parameterCategory":1,"la1":30.2991,"la2":30.254,"lo1":-89.0895,"lo2":-89.0444,"dy":0.0017,"dx":0.0017,"nx":28,"ny":28,"refTime":"2025-11-12T09:00:00:Z","depth":0,"parameterNumber":3,"parameterNumberName":"V-component_of_WINDS"},"data":[0,0,0,0,0,0,0,0,0,0,0,0,0,0,0,0,0,0,0,0,0,0,0,0,0,0,0,0,0,0,0,0,0,0,0,0,0,0,0,0,0,0,0,0,0,0,0,0,0,0,0,0,0,0,0,0,0,0,1.2216,1.2217,0,1.2301,1.2302,1.2303,1.2228,1.2225,1.2222,1.2219,1.2309,1.2315,1.232,0,0,0,0,0,0,0,0,0,0,0,0,0,1.1989,1.1994,1.2216,1.2217,1.2218,1.2301,1.2302,1.2303,1.2229,1.2225,1.2221,1.2218,1.2308,1.2314,1.232,0,0,0,0,0,0,0,0,0,0,0,0,0,1.2083,1.1995,1.2216,1.2191,1.219,1.2301,1.2302,1.2304,1.223,1.2225,1.222,1.2216,1.2306,1.2313,1.2321,1.2462,0,0,1.2345,1.2349,0,0,0,0,0,0,0,0,1.2077,1.2091,1.2194,1.2193,1.2191,1.2249,1.2255,1.2357,1.2231,1.2215,1.2219,1.2214,1.2293,1.2302,1.2328,1.2466,1.247,1.2346,1.2351,1.2354,1.2356,0,0,0,0,0,0,0,1.2071,1.2087,1.225,1.2195,1.2194,1.2176,1.2184,1.2274,1.2279,1.2216,1.221,1.2221,1.2292,1.2321,1.233,1.2472,1.2346,1.2353,1.2358,1.2361,1.2726,1.2731,0,0,0,0,0,0,1.2067,1.2082,1.2247,1.2252,1.2122,1.2183,1.2192,1.2236,1.2278,1.228,1.2225,1.2218,1.231,1.2321,1.2333,1.2499,1.2354,1.2362,1.2366,1.2721,1.2727,1.2732,0,0,0,0,0,0,1.2062,1.2082,1.2244,1.2166,1.2185,1.2192,1.2241,1.224,1.2268,1.2285,1.2285,1.2254,1.2306,1.2322,1.243,1.2501,1.2365,1.2372,1.2715,1.2723,1.273,1.2833,0,0,0,0,0,0,1.2056,1.2081,1.2135,1.2167,1.2189,1.234,1.2245,1.2245,1.2282,1.2273,1.2312,1.2314,1.2304,1.2418,1.2437,1.2509,1.2378,1.2709,1.2719,1.2727,1.2824,1.2843,1.286,0,0,0,0,0,1.2048,1.2163,1.2138,1.2159,1.2257,1.2344,1.2356,1.2342,1.2288,1.2342,1.2352,1.2313,1.2489,1.243,1.2451,1.2526,1.2704,1.2716,1.2727,1.2815,1.284,1.286,0,0,0,0,0,0,1.2141,1.2167,1.214,1.2268,1.2304,1.2331,1.2399,1.2368,1.2421,1.2411,1.2391,1.24,1.2514,1.253,1.2464,1.2663,1.2588,1.2604,1.2648,1.2672,1.269,1.2684,1.2385,0,0,0,0,0,1.2176,1.2244,1.2263,1.2374,1.2393,1.2393,1.243,1.2415,1.2452,1.2468,1.2486,1.2524,1.2587,1.263,1.269,1.2825,1.2831,1.2887,1.2905,1.292,1.2934,1.3004,1.3029,1.2769,1.2769,1.2769,0,0,1.225,1.2272,1.2317,1.2393,1.2419,1.2489,1.2407,1.2486,1.2538,1.248,1.2583,1.2597,1.2637,1.2759,1.2813,1.2776,1.3007,1.2934,1.2946,1.2952,1.3018,1.3043,1.3065,1.2777,1.2775,1.2774,0,0,1.242,1.2444,1.2538,1.2565,1.2604,1.2603,1.2625,1.2656,1.2663,1.2765,1.2722,1.2783,1.2894,1.2924,1.2954,1.313,1.3096,1.315,1.3247,1.3315,1.3336,1.3354,1.3416,1.3438,1.3164,1.3165,1.3165,0,1.2508,1.2612,1.2591,1.2672,1.2706,1.2653,1.2748,1.2775,1.2833,1.2858,1.2815,1.295,1.2974,1.3101,1.3143,1.3169,1.3194,1.3147,1.3334,1.3352,1.3369,1.3428,1.3451,1.3171,1.317,1.3169,1.3169,0,1.2716,1.2789,1.286,1.2914,1.2956,1.3044,1.3035,1.308,1.306,1.3062,1.3165,1.3191,1.3254,1.3283,1.3266,1.3406,1.3382,1.3337,1.3262,1.34,1.3455,1.3478,1.318,1.3178,1.3176,1.3174,0,0,1.2952,1.2989,1.3016,1.3038,1.3076,1.3132,1.3216,1.3275,1.3313,1.3354,1.3423,1.3516,1.3473,1.3507,1.3492,1.3552,1.3688,1.3499,1.35,1.3533,1.3843,1.3876,1.3903,1.3664,1.3668,1.3672,1.3839,0,1.3123,1.3268,1.3249,1.3388,1.3454,1.3403,1.3475,1.3506,1.351,1.3566,1.357,1.3636,1.3575,1.3595,1.3652,1.3659,1.375,1.3647,1.3728,1.3732,1.3721,1.3932,1.3969,1.4125,1.386,1.3864,1.3867,0,1.3344,1.3389,1.3534,1.3557,1.3584,1.365,1.3701,1.3756,1.3788,1.3786,1.3822,1.3795,1.3877,1.3799,1.3912,1.3842,1.3874,1.3882,1.3888,1.3896,1.3809,1.3946,1.4175,1.4199,1.39,1.3898,1.3895,0,1.35,1.3597,1.3695,1.3716,1.3747,1.3794,1.3809,1.3837,1.3872,1.3917,1.394,1.3994,1.4024,1.4066,1.4054,1.3998,1.4169,1.409,1.417,1.417,1.421,1.4208,1.4448,1.423,1.4229,1.4229,1.4228,0,1.3694,1.3784,1.3765,1.3826,1.3925,1.3901,1.4,1.4009,1.4033,1.4094,1.4054,1.4112,1.4092,1.4148,1.4139,1.4233,1.4247,1.4248,1.4244,1.4252,1.4252,1.4274,1.4263,1.4235,1.4234,1.4232,1.4231,0,1.3886,1.3877,1.3981,1.3999,1.4006,1.4078,1.4094,1.4151,1.4149,1.4227,1.4244,1.4242,1.4306,1.4297,1.437,1.4363,1.448,1.4463,1.4469,1.4465,1.4545,1.4538,1.4809,1.4843,1.4602,1.4604,1.4606,0,1.4011,1.4079,1.4103,1.414,1.4158,1.4219,1.4254,1.4232,1.427,1.431,1.4361,1.4421,1.4468,1.4573,1.4579,1.4633,1.4617,1.4708,1.4625,1.4629,1.4618,1.4614,1.462,1.4725,1.4728,1.473,1.4732,0,1.4233,1.4224,1.4276,1.4325,1.4367,1.4406,1.444,1.4473,1.4454,1.4498,1.4562,1.4599,1.467,1.473,1.478,1.4795,1.4761,1.4757,1.4778,1.4787,1.4788,1.4788,1.4514,1.4752,1.475,1.4748,1.4747,1.4746,1.4396,1.4452,1.4477,1.4535,1.4558,1.459,1.4643,1.4646,1.4699,1.4754,1.4738,1.481,1.4837,1.49,1.4921,1.4976,1.4943,1.4974,1.4982,1.499,1.4999,1.4777,1.4985,1.4985,1.4984,1.4984,1.4983,0,1.4615,1.4628,1.4681,1.4728,1.4773,1.4734,1.4768,1.4809,1.4873,1.49,1.4946,1.5018,1.5075,1.5083,1.5136,1.5179,1.5164,1.5194,1.5191,1.5194,1.5027,1.5003,1.5204,1.5204,1.5204,1.5204,1.5204,1.5204,1.4735,1.4828,1.4821,1.4924,1.4936,1.5005,1.5028,1.5057,1.5078,1.516,1.5206,1.521,1.5229,1.5283,1.5332,1.5333,1.5354,1.539,1.5385,1.5229,1.5207,1.5186,1.5163,1.5395,1.5395,1.5548,1.5549,1.555]}]]